JBU7158 KMSY-KBRO

Flight info

Callsign JBU7158
Flight time N/A
Altitude 36000
Route LFT LCH DAS PSX CRP/N0458F370 BRO
Aircraft A320/M-SDE3FGHIRWY/LB1

Departure

Time 2026-05-08 00:58
Airport Louis Armstrong New Orleans International Airport (KMSY)

Arrival

Time N/A
Airport Brownsville South Padre Island International Airport (KBRO)
Time Latitude Longitude Altitude Speed Heading
2026-05-08 00:27 29.98611 -90.25452 16 ft 0 kts 136°
2026-05-08 00:47 29.98616 -90.25458 14 ft 3 kts 134°
2026-05-08 00:48 29.98630 -90.25479 16 ft 3 kts 111°
2026-05-08 00:48 29.98633 -90.25501 16 ft 3 kts 56°
2026-05-08 00:48 29.98628 -90.25508 18 ft 1 kts 36°
2026-05-08 00:54 29.98638 -90.25500 16 ft 4 kts 37°
2026-05-08 00:54 29.98670 -90.25472 15 ft 7 kts 37°
2026-05-08 00:54 29.98714 -90.25435 16 ft 9 kts 37°
2026-05-08 00:54 29.98771 -90.25385 15 ft 12 kts 37°
2026-05-08 00:55 29.98836 -90.25304 12 ft 16 kts 73°
2026-05-08 00:55 29.98833 -90.25182 10 ft 14 kts 63°
2026-05-08 00:55 29.98847 -90.25166 12 ft 0 kts 37°
2026-05-08 00:56 29.98848 -90.25166 12 ft 1 kts 37°
2026-05-08 00:56 29.98883 -90.25150 11 ft 10 kts
2026-05-08 00:57 29.98952 -90.25242 14 ft 17 kts 300°
2026-05-08 00:57 29.98996 -90.25397 13 ft 36 kts 286°
2026-05-08 00:57 29.99128 -90.25940 14 ft 101 kts 285°
2026-05-08 00:57 29.99360 -90.26907 13 ft 147 kts 285°
2026-05-08 00:58 29.99646 -90.28118 416 ft 153 kts 285°
2026-05-08 00:58 29.99916 -90.29291 984 ft 151 kts 284°
2026-05-08 00:58 30.00192 -90.30502 1261 ft 165 kts 284°
2026-05-08 00:58 30.00501 -90.31857 1404 ft 184 kts 284°
2026-05-08 00:59 30.00843 -90.33361 1531 ft 204 kts 284°
2026-05-08 00:59 30.01222 -90.35032 1644 ft 226 kts 284°
2026-05-08 00:59 30.01629 -90.36823 2143 ft 226 kts 284°
2026-05-08 00:59 30.02022 -90.38554 2852 ft 221 kts 284°
2026-05-08 01:00 30.02413 -90.40277 3410 ft 222 kts 284°
2026-05-08 01:00 30.02807 -90.42008 3940 ft 224 kts 284°
2026-05-08 01:00 30.03203 -90.43750 4464 ft 226 kts 284°
2026-05-08 01:00 30.03604 -90.45510 4984 ft 227 kts 284°
2026-05-08 01:01 30.04007 -90.47282 5499 ft 229 kts 284°
2026-05-08 01:01 30.04415 -90.49068 6010 ft 231 kts 284°
2026-05-08 01:01 30.04825 -90.50868 6515 ft 233 kts 284°
2026-05-08 01:01 30.05239 -90.52678 7017 ft 234 kts 284°
2026-05-08 01:02 30.05655 -90.54503 7510 ft 235 kts 284°
2026-05-08 01:02 30.05937 -90.56368 8009 ft 237 kts 277°
2026-05-08 01:02 30.06142 -90.58261 8491 ft 239 kts 276°
2026-05-08 01:02 30.06330 -90.60172 8963 ft 240 kts 276°
2026-05-08 01:03 30.06515 -90.62097 9421 ft 242 kts 276°
2026-05-08 01:03 30.06698 -90.64013 9873 ft 244 kts 276°
2026-05-08 01:03 30.06883 -90.65961 10318 ft 245 kts 276°
2026-05-08 01:03 30.07073 -90.67929 10757 ft 247 kts 276°
2026-05-08 01:04 30.07264 -90.69904 11187 ft 249 kts 276°
2026-05-08 01:04 30.07458 -90.71894 11613 ft 250 kts 276°
2026-05-08 01:04 30.07655 -90.73902 12035 ft 252 kts 276°
2026-05-08 01:04 30.07853 -90.75918 12446 ft 254 kts 276°
2026-05-08 01:05 30.08053 -90.77949 12849 ft 255 kts 276°
2026-05-08 01:05 30.08253 -90.79991 13243 ft 257 kts 276°
2026-05-08 01:05 30.08454 -90.82046 13628 ft 258 kts 276°
2026-05-08 01:05 30.08655 -90.84113 14006 ft 260 kts 276°
2026-05-08 01:06 30.08859 -90.86193 14376 ft 261 kts 276°
2026-05-08 01:06 30.09064 -90.88287 14737 ft 263 kts 276°
2026-05-08 01:06 30.09270 -90.90387 15088 ft 264 kts 276°
2026-05-08 01:06 30.09476 -90.92505 15430 ft 266 kts 276°
2026-05-08 01:07 30.09679 -90.94628 15783 ft 266 kts 276°
2026-05-08 01:07 30.09884 -90.96757 16118 ft 267 kts 276°
2026-05-08 01:07 30.10086 -90.98870 16435 ft 269 kts 276°
2026-05-08 01:07 30.10294 -91.01038 16619 ft 276 kts 276°
2026-05-08 01:08 30.10509 -91.03273 16747 ft 284 kts 276°
2026-05-08 01:08 30.10730 -91.05567 16876 ft 291 kts 276°
2026-05-08 01:08 30.10956 -91.07913 17004 ft 297 kts 276°
2026-05-08 01:08 30.11187 -91.10310 17131 ft 303 kts 276°
2026-05-08 01:09 30.11420 -91.12746 17258 ft 308 kts 276°
2026-05-08 01:09 30.11654 -91.15218 17385 ft 312 kts 276°
2026-05-08 01:09 30.11891 -91.17723 17512 ft 316 kts 276°
2026-05-08 01:09 30.12131 -91.20255 17636 ft 319 kts 276°
2026-05-08 01:10 30.12374 -91.22821 17762 ft 322 kts 276°
2026-05-08 01:10 30.12617 -91.25399 17888 ft 324 kts 276°
2026-05-08 01:10 30.12862 -91.27995 18014 ft 326 kts 276°
2026-05-08 01:10 30.13112 -91.30612 18140 ft 328 kts 276°
2026-05-08 01:11 30.13362 -91.33239 18265 ft 330 kts 276°
2026-05-08 01:11 30.13610 -91.35878 18391 ft 331 kts 276°
2026-05-08 01:11 30.13857 -91.38528 18516 ft 332 kts 276°
2026-05-08 01:11 30.14104 -91.41193 18642 ft 334 kts 276°
2026-05-08 01:12 30.14350 -91.43859 18773 ft 334 kts 276°
2026-05-08 01:12 30.14598 -91.46534 18892 ft 335 kts 276°
2026-05-08 01:12 30.14845 -91.49214 19018 ft 336 kts 276°
2026-05-08 01:12 30.15091 -91.51869 19142 ft 337 kts 276°
2026-05-08 01:13 30.15340 -91.54559 19267 ft 337 kts 276°
2026-05-08 01:13 30.15591 -91.57258 19389 ft 337 kts 276°
2026-05-08 01:13 30.15841 -91.59955 19517 ft 338 kts 276°
2026-05-08 01:13 30.16089 -91.62655 19642 ft 338 kts 276°
2026-05-08 01:14 30.16334 -91.65357 19767 ft 338 kts 276°
2026-05-08 01:14 30.16579 -91.68061 19892 ft 339 kts 276°
2026-05-08 01:14 30.16824 -91.70767 20015 ft 339 kts 276°
2026-05-08 01:14 30.17070 -91.73480 20142 ft 339 kts 276°
2026-05-08 01:15 30.17315 -91.76186 20267 ft 339 kts 276°
2026-05-08 01:15 30.17560 -91.78891 20392 ft 338 kts 276°
2026-05-08 01:15 30.17805 -91.81599 20517 ft 338 kts 276°
2026-05-08 01:15 30.18050 -91.84297 20638 ft 338 kts 276°
2026-05-08 01:16 30.18294 -91.87001 20766 ft 337 kts 276°
2026-05-08 01:16 30.18533 -91.89692 20891 ft 337 kts 276°
2026-05-08 01:16 30.18772 -91.92390 21015 ft 337 kts 276°
2026-05-08 01:16 30.19009 -91.95078 21140 ft 336 kts 276°
2026-05-08 01:17 30.19246 -91.97761 21264 ft 336 kts 276°
2026-05-08 01:17 30.19333 -92.00458 21388 ft 335 kts 267°
2026-05-08 01:17 30.19214 -92.03149 21513 ft 335 kts 267°
2026-05-08 01:17 30.19096 -92.05840 21640 ft 337 kts 267°
2026-05-08 01:18 30.18977 -92.08599 21771 ft 351 kts 267°
2026-05-08 01:18 30.18852 -92.11470 21899 ft 365 kts 267°
2026-05-08 01:18 30.18723 -92.14455 22027 ft 378 kts 267°
2026-05-08 01:18 30.18588 -92.17541 22183 ft 391 kts 267°
2026-05-08 01:19 30.18449 -92.20685 22322 ft 404 kts 267°
2026-05-08 01:19 30.18304 -92.23979 22451 ft 416 kts 267°
2026-05-08 01:19 30.18154 -92.27357 22578 ft 426 kts 267°
2026-05-08 01:19 30.18000 -92.30815 22705 ft 435 kts 267°
2026-05-08 01:20 30.17842 -92.34335 22900 ft 441 kts 267°
2026-05-08 01:20 30.17680 -92.37889 23192 ft 444 kts 267°
2026-05-08 01:20 30.17516 -92.41463 23503 ft 447 kts 267°
2026-05-08 01:20 30.17350 -92.45055 23813 ft 449 kts 267°
2026-05-08 01:21 30.17183 -92.48671 24122 ft 451 kts 267°
2026-05-08 01:21 30.17015 -92.52297 24427 ft 453 kts 267°
2026-05-08 01:21 30.16846 -92.55939 24722 ft 455 kts 267°
2026-05-08 01:21 30.16674 -92.59597 25004 ft 457 kts 267°
2026-05-08 01:22 30.16498 -92.63270 25291 ft 459 kts 266°
2026-05-08 01:22 30.16319 -92.66958 25566 ft 461 kts 266°
2026-05-08 01:22 30.16138 -92.70662 25832 ft 463 kts 266°
2026-05-08 01:22 30.15956 -92.74387 26093 ft 465 kts 266°
2026-05-08 01:23 30.15775 -92.78120 26348 ft 466 kts 266°
2026-05-08 01:23 30.15593 -92.81865 26581 ft 468 kts 266°
2026-05-08 01:23 30.15410 -92.85624 26802 ft 469 kts 266°
2026-05-08 01:23 30.15225 -92.89395 27008 ft 471 kts 266°
2026-05-08 01:24 30.15039 -92.93176 27200 ft 472 kts 266°
2026-05-08 01:24 30.14846 -92.96970 27433 ft 471 kts 266°
2026-05-08 01:24 30.14655 -93.00669 28490 ft 452 kts 266°
2026-05-08 01:24 30.14469 -93.04270 29064 ft 449 kts 266°
2026-05-08 01:25 30.14286 -93.07828 29800 ft 440 kts 266°
2026-05-08 01:25 30.14176 -93.11356 30241 ft 439 kts 272°
2026-05-08 01:25 30.14306 -93.14886 30594 ft 441 kts 272°
2026-05-08 01:25 30.14441 -93.18433 30905 ft 442 kts 272°
2026-05-08 01:26 30.14575 -93.21982 31303 ft 442 kts 272°
2026-05-08 01:26 30.14707 -93.25522 31716 ft 441 kts 272°
2026-05-08 01:26 30.14834 -93.29014 32117 ft 440 kts 272°
2026-05-08 01:26 30.14958 -93.32543 32516 ft 439 kts 272°
2026-05-08 01:27 30.15080 -93.36062 32912 ft 438 kts 272°
2026-05-08 01:27 30.15200 -93.39577 33301 ft 437 kts 272°
2026-05-08 01:27 30.15319 -93.43084 33686 ft 437 kts 272°
2026-05-08 01:27 30.15438 -93.46585 34054 ft 436 kts 272°
2026-05-08 01:28 30.15559 -93.50080 34406 ft 435 kts 272°
2026-05-08 01:28 30.15680 -93.53576 34744 ft 434 kts 272°
2026-05-08 01:28 30.15801 -93.57054 35069 ft 434 kts 272°
2026-05-08 01:28 30.15919 -93.60541 35383 ft 433 kts 272°
2026-05-08 01:29 30.16036 -93.64015 35685 ft 433 kts 272°
2026-05-08 01:29 30.16151 -93.67487 35940 ft 433 kts 272°
2026-05-08 01:29 30.16262 -93.70968 36004 ft 433 kts 272°
2026-05-08 01:30 30.16482 -93.77907 36008 ft 432 kts 272°
2026-05-08 01:30 30.16700 -93.84840 36008 ft 432 kts 272°
2026-05-08 01:31 30.16920 -93.91842 36010 ft 442 kts 272°
2026-05-08 01:31 30.17146 -93.99021 36009 ft 450 kts 272°
2026-05-08 01:31 30.17257 -94.02633 40944 ft 449 kts 272°
2026-05-08 01:32 30.17367 -94.06245 40947 ft 451 kts 272°
2026-05-08 01:32 30.17582 -94.13547 40042 ft 461 kts 272°
2026-05-08 01:32 30.17687 -94.17226 39236 ft 465 kts 272°
2026-05-08 01:33 30.17795 -94.20973 38493 ft 467 kts 272°
2026-05-08 01:33 30.17903 -94.24726 37776 ft 467 kts 272°
2026-05-08 01:33 30.18009 -94.28469 37193 ft 464 kts 272°
2026-05-08 01:33 30.18112 -94.32181 36591 ft 462 kts 272°
2026-05-08 01:34 30.18213 -94.35891 36132 ft 459 kts 272°
2026-05-08 01:34 30.18315 -94.39582 35964 ft 460 kts 272°
2026-05-08 01:34 30.18416 -94.43285 36011 ft 462 kts 272°
2026-05-08 01:35 30.18617 -94.50713 36008 ft 463 kts 271°
2026-05-08 01:35 30.18714 -94.58152 36006 ft 463 kts 265°
2026-05-08 01:35 30.18179 -94.61811 36011 ft 462 kts 254°
2026-05-08 01:36 30.17067 -94.65295 36007 ft 462 kts 244°
2026-05-08 01:36 30.15415 -94.68477 36008 ft 462 kts 233°
2026-05-08 01:36 30.13293 -94.71262 36011 ft 462 kts 226°
2026-05-08 01:37 30.09554 -94.75683 36009 ft 463 kts 226°
2026-05-08 01:37 30.05064 -94.81017 36013 ft 463 kts 226°
2026-05-08 01:38 30.00566 -94.86356 36018 ft 464 kts 226°
2026-05-08 01:38 29.95331 -94.92550 36023 ft 464 kts 226°
2026-05-08 01:39 29.91549 -94.97017 36025 ft 464 kts 226°
2026-05-08 01:39 29.87028 -95.02341 36029 ft 465 kts 226°
2026-05-08 01:40 29.82505 -95.07679 36031 ft 465 kts 226°
2026-05-08 01:40 29.78017 -95.12972 36032 ft 465 kts 226°
2026-05-08 01:41 29.73485 -95.18294 36032 ft 465 kts 226°
2026-05-08 01:41 29.68950 -95.23606 36032 ft 465 kts 226°
2026-05-08 01:42 29.64415 -95.28915 36032 ft 465 kts 226°
2026-05-08 01:42 29.59884 -95.34227 36030 ft 464 kts 226°
2026-05-08 01:43 29.55356 -95.39517 36029 ft 464 kts 225°
2026-05-08 01:43 29.50824 -95.44805 36029 ft 464 kts 225°
2026-05-08 01:44 29.46324 -95.50051 36028 ft 464 kts 225°
2026-05-08 01:44 29.41788 -95.55339 36028 ft 464 kts 225°
2026-05-08 01:45 29.37250 -95.60610 36028 ft 464 kts 225°
2026-05-08 01:45 29.32721 -95.65856 35305 ft 462 kts 225°
2026-05-08 01:45 29.30457 -95.68480 34491 ft 463 kts 225°
2026-05-08 01:46 29.28193 -95.71107 33658 ft 464 kts 225°
2026-05-08 01:46 29.25919 -95.73745 32809 ft 466 kts 225°
2026-05-08 01:46 29.23638 -95.76388 31915 ft 468 kts 225°
2026-05-08 01:46 29.21346 -95.79040 30986 ft 469 kts 225°
2026-05-08 01:47 29.19045 -95.81700 30004 ft 471 kts 225°
2026-05-08 01:47 29.16733 -95.84369 28967 ft 473 kts 225°
2026-05-08 01:47 29.14439 -95.87016 27873 ft 475 kts 225°
2026-05-08 01:48 29.09770 -95.92405 25448 ft 479 kts 225°
2026-05-08 01:48 29.07419 -95.95116 24102 ft 481 kts 225°
2026-05-08 01:48 29.05056 -95.97836 22722 ft 483 kts 225°
2026-05-08 01:48 29.02704 -96.00539 21471 ft 471 kts 225°
2026-05-08 01:49 29.00442 -96.03137 20426 ft 450 kts 225°
2026-05-08 01:49 28.98253 -96.05648 19130 ft 444 kts 225°
2026-05-08 01:49 28.96066 -96.08153 18505 ft 447 kts 225°
2026-05-08 01:49 28.93867 -96.10676 18219 ft 447 kts 225°
2026-05-08 01:50 28.91679 -96.13188 18014 ft 445 kts 225°
2026-05-08 01:50 28.89484 -96.15707 17997 ft 448 kts 225°
2026-05-08 01:50 28.87286 -96.18227 18010 ft 448 kts 225°
2026-05-08 01:50 28.85085 -96.20745 18011 ft 448 kts 225°
2026-05-08 01:51 28.82879 -96.23266 18010 ft 448 kts 225°
2026-05-08 01:51 28.80681 -96.25778 18009 ft 448 kts 225°
2026-05-08 01:51 28.78479 -96.28293 17999 ft 448 kts 225°
2026-05-08 01:51 28.76277 -96.30815 18008 ft 448 kts 226°
2026-05-08 01:52 28.74150 -96.33412 18009 ft 448 kts 228°
2026-05-08 01:52 28.72110 -96.36096 18006 ft 448 kts 230°
2026-05-08 01:52 28.70121 -96.38836 18002 ft 448 kts 231°
2026-05-08 01:52 28.68149 -96.41591 17999 ft 448 kts 231°
2026-05-08 01:53 28.66201 -96.44298 18010 ft 448 kts 231°
2026-05-08 01:53 28.64206 -96.47025 18012 ft 448 kts 230°
2026-05-08 01:53 28.62195 -96.49732 18009 ft 448 kts 230°
2026-05-08 01:53 28.60165 -96.52431 18013 ft 448 kts 229°
2026-05-08 01:54 28.58136 -96.55116 18010 ft 448 kts 229°
2026-05-08 01:54 28.56106 -96.57805 18010 ft 448 kts 229°
2026-05-08 01:54 28.54078 -96.60496 18016 ft 448 kts 230°
2026-05-08 01:54 28.52053 -96.63188 18008 ft 448 kts 230°
2026-05-08 01:55 28.50027 -96.65883 18016 ft 448 kts 229°
2026-05-08 01:55 28.47766 -96.68302 18007 ft 448 kts 216°
2026-05-08 01:55 28.45019 -96.69987 18013 ft 449 kts 200°
2026-05-08 01:55 28.42035 -96.71025 18016 ft 449 kts 196°
2026-05-08 01:56 28.39029 -96.71992 18012 ft 449 kts 196°
2026-05-08 01:56 28.36019 -96.72939 18013 ft 449 kts 195°
2026-05-08 01:56 28.33008 -96.73881 18009 ft 449 kts 195°
2026-05-08 01:56 28.29999 -96.74827 18013 ft 449 kts 195°
2026-05-08 01:57 28.26984 -96.75779 18013 ft 449 kts 196°
2026-05-08 01:57 28.23978 -96.76733 18009 ft 449 kts 196°
2026-05-08 01:57 28.20972 -96.77692 18013 ft 449 kts 196°
2026-05-08 01:57 28.17967 -96.78652 18012 ft 449 kts 196°
2026-05-08 01:58 28.14956 -96.79614 18010 ft 449 kts 196°
2026-05-08 01:58 28.11954 -96.80573 18009 ft 449 kts 196°
2026-05-08 01:58 28.08942 -96.81535 18010 ft 449 kts 196°
2026-05-08 01:58 28.05975 -96.82480 18013 ft 449 kts 196°
2026-05-08 01:59 28.02968 -96.83436 18007 ft 449 kts 196°
2026-05-08 01:59 27.99962 -96.84384 18009 ft 449 kts 195°
2026-05-08 01:59 27.96947 -96.85334 18007 ft 449 kts 196°
2026-05-08 01:59 27.93938 -96.86283 18013 ft 449 kts 196°
2026-05-08 02:00 27.90929 -96.87234 18005 ft 449 kts 196°
2026-05-08 02:00 27.87920 -96.88185 18013 ft 449 kts 196°
2026-05-08 02:00 27.84912 -96.89137 18013 ft 449 kts 196°
2026-05-08 02:00 27.81904 -96.90089 17960 ft 447 kts 196°
2026-05-08 02:01 27.78937 -96.91026 17192 ft 440 kts 196°
2026-05-08 02:01 27.76004 -96.91951 16299 ft 435 kts 196°
2026-05-08 02:01 27.73104 -96.92866 15428 ft 430 kts 196°
2026-05-08 02:01 27.70233 -96.93773 14598 ft 425 kts 196°
2026-05-08 02:02 27.67399 -96.94665 14055 ft 423 kts 196°
2026-05-08 02:02 27.64556 -96.95559 13859 ft 424 kts 196°
2026-05-08 02:02 27.61722 -96.96454 13852 ft 423 kts 196°
2026-05-08 02:02 27.58884 -96.97350 13854 ft 424 kts 196°
2026-05-08 02:03 27.56046 -96.98246 13855 ft 424 kts 196°
2026-05-08 02:03 27.53208 -96.99139 13855 ft 424 kts 196°
2026-05-08 02:03 27.50370 -97.00030 13855 ft 424 kts 196°
2026-05-08 02:03 27.47526 -97.00921 13855 ft 423 kts 195°
2026-05-08 02:04 27.44688 -97.01810 13855 ft 423 kts 195°
2026-05-08 02:04 27.41888 -97.02687 13855 ft 423 kts 196°
2026-05-08 02:04 27.39050 -97.03578 13855 ft 423 kts 196°
2026-05-08 02:04 27.36170 -97.04482 13855 ft 423 kts 196°
2026-05-08 02:05 27.33333 -97.05372 13855 ft 423 kts 196°
2026-05-08 02:05 27.30533 -97.06248 13855 ft 423 kts 195°
2026-05-08 02:05 27.27696 -97.07134 13855 ft 423 kts 195°
2026-05-08 02:05 27.24853 -97.08021 13855 ft 423 kts 195°
2026-05-08 02:06 27.22011 -97.08909 13855 ft 423 kts 195°
2026-05-08 02:06 27.19175 -97.09796 13855 ft 423 kts 196°
2026-05-08 02:06 27.16337 -97.10683 13855 ft 423 kts 195°
2026-05-08 02:06 27.13494 -97.11569 13855 ft 423 kts 195°
2026-05-08 02:07 27.10656 -97.12454 13855 ft 424 kts 195°
2026-05-08 02:07 27.07812 -97.13341 13855 ft 423 kts 195°
2026-05-08 02:07 27.04982 -97.14220 13762 ft 420 kts 195°
2026-05-08 02:07 27.02179 -97.15088 13003 ft 415 kts 195°
2026-05-08 02:08 26.99404 -97.15949 12247 ft 412 kts 195°
2026-05-08 02:08 26.96688 -97.16792 11561 ft 408 kts 195°
2026-05-08 02:08 26.93964 -97.17638 10855 ft 404 kts 195°
2026-05-08 02:08 26.91272 -97.18475 10125 ft 399 kts 195°
2026-05-08 02:09 26.88609 -97.19300 9476 ft 393 kts 195°
2026-05-08 02:09 26.85981 -97.20114 8675 ft 390 kts 195°
2026-05-08 02:09 26.83381 -97.20918 8072 ft 387 kts 195°
2026-05-08 02:09 26.80783 -97.21724 7876 ft 388 kts 195°
2026-05-08 02:10 26.78183 -97.22531 7843 ft 388 kts 195°
2026-05-08 02:10 26.75580 -97.23339 7855 ft 388 kts 195°
2026-05-08 02:10 26.72902 -97.23996 7990 ft 403 kts 189°
2026-05-08 02:10 26.70080 -97.24402 8542 ft 411 kts 188°
2026-05-08 02:11 26.67226 -97.24793 9240 ft 415 kts 186°
2026-05-08 02:11 26.64345 -97.25138 9952 ft 418 kts 186°
2026-05-08 02:11 26.61454 -97.25482 10653 ft 418 kts 186°
2026-05-08 02:11 26.58556 -97.25800 11465 ft 415 kts 185°
2026-05-08 02:12 26.55688 -97.26025 12362 ft 411 kts 184°
2026-05-08 02:12 26.52841 -97.26187 13198 ft 409 kts 183°
2026-05-08 02:12 26.50002 -97.26369 14014 ft 407 kts 183°
2026-05-08 02:12 26.47130 -97.26503 14081 ft 425 kts 182°
2026-05-08 02:13 26.44129 -97.26604 14235 ft 431 kts 181°
2026-05-08 02:13 26.41194 -97.26664 14324 ft 424 kts 181°
2026-05-08 02:13 26.38252 -97.26673 14241 ft 423 kts 179°
2026-05-08 02:13 26.35318 -97.26586 14100 ft 421 kts 178°
2026-05-08 02:14 26.32431 -97.26453 13978 ft 407 kts 178°
2026-05-08 02:14 26.29650 -97.26364 13881 ft 393 kts 178°
2026-05-08 02:14 26.26882 -97.26283 13906 ft 407 kts 180°
2026-05-08 02:14 26.23994 -97.26396 14048 ft 422 kts 182°